| time (UTC) | temp F | wind direction | speed MPH | gust MPH | rain 1hr in | rain 24hr in | rain mn in | humidity % | barometer mb |
| 20260902124314 | 69 | 165 | 2.0 | 4.0 | 0.00 | 0.00 | 0.00 | 94 | 1015.1 |
| 20260902123814 | 68 | 165 | 1.0 | 3.0 | 0.00 | 0.00 | 0.00 | 95 | 1015.0 |
| 20260902122313 | 66 | 123 | 1.0 | 2.0 | 0.00 | 0.00 | 0.00 | 95 | 1015.0 |
| 20260902121814 | 66 | 123 | 0.0 | 3.0 | 0.00 | 0.00 | 0.00 | 95 | 1014.9 |
| 20260902121314 | 66 | 123 | 1.0 | 3.0 | 0.00 | 0.00 | 0.00 | 95 | 1014.9 |
| 20260902120814 | 66 | 123 | 1.0 | 2.0 | 0.00 | 0.00 | 0.00 | 95 | 1014.9 |
| 20260902120313 | 65 | 123 | 0.0 | 1.0 | 0.00 | 0.00 | 0.00 | 95 | 1014.9 |
| 20260902115813 | 65 | 123 | 0.0 | 1.0 | 0.00 | 0.00 | 0.00 | 95 | 1014.8 |
| 20260902115313 | 65 | 123 | 0.0 | 1.0 | 0.00 | 0.00 | 0.00 | 95 | 1014.8 |
| 20260902114814 | 65 | 123 | 0.0 | 1.0 | 0.00 | 0.00 | 0.00 | 95 | 1014.7 |
| 20260902114313 | 65 | 123 | 0.0 | 0.0 | 0.00 | 0.00 | 0.00 | 95 | 1014.7 |
| 20260902113813 | 65 | 123 | 0.0 | 0.0 | 0.00 | 0.00 | 0.00 | 95 | 1014.7 |
| 20260902113313 | 65 | 123 | 0.0 | 0.0 | 0.00 | 0.00 | 0.00 | 94 | 1014.7 |
| 20260902112813 | 65 | 123 | 0.0 | 0.0 | 0.00 | 0.00 | 0.00 | 95 | 1014.6 |
| 20260902112313 | 65 | 123 | 0.0 | 0.0 | 0.00 | 0.00 | 0.00 | 95 | 1014.6 |
| 20260902111813 | 65 | 123 | 0.0 | 0.0 | 0.00 | 0.00 | 0.00 | 95 | 1014.6 |
| 20260902111313 | 65 | 123 | 0.0 | 0.0 | 0.00 | 0.00 | 0.00 | 95 | 1014.6 |
| 20260902110813 | 65 | 123 | 0.0 | 0.0 | 0.00 | 0.00 | 0.00 | 95 | 1014.5 |
| 20260902110312 | 65 | 123 | 0.0 | 1.0 | 0.00 | 0.00 | 0.00 | 95 | 1014.5 |
| 20260902105811 | 65 | 123 | 0.0 | 1.0 | 0.00 | 0.00 | 0.00 | 95 | 1014.3 |
| 20260902105312 | 65 | 123 | 0.0 | 0.0 | 0.00 | 0.00 | 0.00 | 95 | 1014.3 |
| 20260902104812 | 65 | 123 | 0.0 | 0.0 | 0.00 | 0.00 | 0.00 | 95 | 1014.3 |
| 20260902103812 | 65 | 123 | 0.0 | 0.0 | 0.00 | 0.00 | 0.00 | 95 | 1014.5 |
| 20260902103311 | 65 | 123 | 0.0 | 0.0 | 0.00 | 0.00 | 0.00 | 95 | 1014.3 |
| 20260902102811 | 65 | 123 | 0.0 | 0.0 | 0.00 | 0.00 | 0.00 | 95 | 1014.2 |
| 20260902102312 | 65 | 123 | 0.0 | 0.0 | 0.00 | 0.00 | 0.00 | 95 | 1014.1 |
| 20260902101811 | 65 | 123 | 0.0 | 0.0 | 0.00 | 0.00 | 0.00 | 95 | 1014.1 |
| 20260902101311 | 65 | 123 | 0.0 | 0.0 | 0.00 | 0.00 | 0.00 | 95 | 1014.2 |
| 20260902100310 | 65 | 123 | 0.0 | 0.0 | 0.00 | 0.00 | 0.00 | 95 | 1014.2 |
| 20260902095311 | 65 | 123 | 0.0 | 0.0 | 0.00 | 0.00 | 0.00 | 94 | 1014.1 |
| 20260902094810 | 65 | 123 | 0.0 | 0.0 | 0.00 | 0.00 | 0.00 | 94 | 1014.1 |
| 20260902094310 | 65 | 123 | 0.0 | 0.0 | 0.00 | 0.00 | 0.00 | 94 | 1014.1 |
| 20260902093810 | 65 | 123 | 0.0 | 0.0 | 0.00 | 0.00 | 0.00 | 94 | 1014.1 |
| 20260902092811 | 66 | 123 | 0.0 | 0.0 | 0.00 | 0.00 | 0.00 | 93 | 1014.1 |
| 20260902092309 | 66 | 123 | 0.0 | 0.0 | 0.00 | 0.00 | 0.00 | 93 | 1014.0 |
| 20260902091310 | 66 | 123 | 0.0 | 1.0 | 0.00 | 0.00 | 0.00 | 93 | 1013.9 |
| 20260902090809 | 66 | 123 | 0.0 | 1.0 | 0.00 | 0.00 | 0.00 | 93 | 1013.9 |
| 20260902090309 | 67 | 123 | 0.0 | 1.0 | 0.00 | 0.00 | 0.00 | 93 | 1013.9 |
| 20260902085809 | 67 | 123 | 0.0 | 0.0 | 0.00 | 0.00 | 0.00 | 93 | 1013.8 |
| 20260902085309 | 67 | 123 | 0.0 | 0.0 | 0.00 | 0.00 | 0.00 | 93 | 1013.9 |
| 20260902084809 | 67 | 123 | 0.0 | 0.0 | 0.00 | 0.00 | 0.00 | 93 | 1013.9 |
| 20260902083308 | 67 | 123 | 1.0 | 5.0 | 0.00 | 0.00 | 0.00 | 93 | 1013.8 |
| 20260902082808 | 67 | 123 | 3.0 | 5.0 | 0.00 | 0.00 | 0.00 | 93 | 1013.7 |
| 20260902081808 | 67 | 172 | 0.0 | 1.0 | 0.00 | 0.00 | 0.00 | 93 | 1013.5 |
| 20260902081308 | 67 | 172 | 0.0 | 0.0 | 0.00 | 0.00 | 0.00 | 93 | 1013.5 |
| 20260902080808 | 67 | 172 | 0.0 | 0.0 | 0.00 | 0.00 | 0.00 | 93 | 1013.5 |
| 20260902080308 | 67 | 172 | 0.0 | 0.0 | 0.00 | 0.00 | 0.00 | 93 | 1013.4 |
| 20260902075808 | 67 | 172 | 0.0 | 0.0 | 0.00 | 0.00 | 0.00 | 93 | 1013.4 |
| 20260902075308 | 67 | 172 | 0.0 | 0.0 | 0.00 | 0.00 | 0.00 | 93 | 1013.5 |
| 20260902074807 | 67 | 172 | 0.0 | 0.0 | 0.00 | 0.00 | 0.00 | 93 | 1013.4 |
| 20260902074307 | 67 | 172 | 0.0 | 0.0 | 0.00 | 0.00 | 0.00 | 93 | 1013.4 |
| 20260902073807 | 67 | 172 | 0.0 | 0.0 | 0.00 | 0.00 | 0.00 | 93 | 1013.4 |
| 20260902072309 | 67 | 172 | 0.0 | 0.0 | 0.00 | 0.00 | 0.00 | 93 | 1013.5 |
| 20260902071306 | 67 | 172 | 0.0 | 0.0 | 0.00 | 0.00 | 0.00 | 93 | 1013.5 |
| 20260902070306 | 67 | 172 | 0.0 | 0.0 | 0.00 | 0.00 | 0.00 | 93 | 1013.5 |
| 20260902065807 | 67 | 172 | 0.0 | 0.0 | 0.00 | 0.00 | 0.00 | 93 | 1013.5 |
| 20260902065307 | 67 | 172 | 0.0 | 0.0 | 0.00 | 0.00 | 0.00 | 92 | 1013.6 |
| 20260902064806 | 68 | 172 | 0.0 | 0.0 | 0.00 | 0.00 | 0.00 | 92 | 1013.5 |
| 20260902064306 | 68 | 172 | 0.0 | 0.0 | 0.00 | 0.00 | 0.00 | 92 | 1013.7 |
| 20260902063806 | 68 | 172 | 0.0 | 0.0 | 0.00 | 0.00 | 0.00 | 91 | 1013.7 |
| 20260902063305 | 68 | 172 | 0.0 | 0.0 | 0.00 | 0.00 | 0.00 | 91 | 1013.7 |
| 20260902062806 | 68 | 172 | 0.0 | 0.0 | 0.00 | 0.00 | 0.00 | 91 | 1013.7 |
| 20260902061805 | 69 | 172 | 0.0 | 1.0 | 0.00 | 0.00 | 0.00 | 90 | 1013.7 |
| 20260902060805 | 69 | 172 | 0.0 | 0.0 | 0.00 | 0.00 | 0.00 | 90 | 1013.7 |
| 20260902055805 | 69 | 172 | 0.0 | 1.0 | 0.00 | 0.00 | 0.00 | 89 | 1013.6 |
| 20260902055306 | 69 | 172 | 0.0 | 0.0 | 0.00 | 0.00 | 0.00 | 89 | 1013.5 |
| 20260902054803 | 69 | 172 | 0.0 | 0.0 | 0.00 | 0.00 | 0.00 | 89 | 1013.5 |
| 20260902053804 | 69 | 172 | 0.0 | 1.0 | 0.00 | 0.00 | 0.00 | 89 | 1013.5 |
| 20260902053305 | 69 | 172 | 0.0 | 1.0 | 0.00 | 0.00 | 0.00 | 89 | 1013.4 |
| 20260902052306 | 70 | 172 | 0.0 | 3.0 | 0.00 | 0.00 | 0.00 | 89 | 1013.4 |
| 20260902051804 | 69 | 172 | 1.0 | 3.0 | 0.00 | 0.00 | 0.00 | 89 | 1013.5 |
| 20260902051304 | 69 | 172 | 2.0 | 4.0 | 0.00 | 0.00 | 0.00 | 89 | 1013.5 |
| 20260902050803 | 69 | 172 | 2.0 | 4.0 | 0.00 | 0.00 | 0.00 | 89 | 1013.6 |
| 20260902050303 | 69 | 172 | 2.0 | 3.0 | 0.00 | 0.00 | 0.00 | 89 | 1013.5 |
| 20260902045803 | 69 | 172 | 1.0 | 2.0 | 0.00 | 0.00 | 0.00 | 90 | 1013.6 |
| 20260902045306 | 70 | 172 | 1.0 | 2.0 | 0.00 | 0.00 | 0.00 | 89 | 1013.8 |
| 20260902044803 | 70 | 172 | 0.0 | 1.0 | 0.00 | 0.00 | 0.00 | 89 | 1013.7 |
| 20260902043802 | 70 | 172 | 0.0 | 1.0 | 0.00 | 0.00 | 0.00 | 89 | 1013.6 |
| 20260902043302 | 70 | 172 | 0.0 | 1.0 | 0.00 | 0.00 | 0.00 | 89 | 1013.7 |
| 20260902042802 | 70 | 172 | 1.0 | 1.0 | 0.00 | 0.00 | 0.00 | 88 | 1013.7 |
| 20260902041802 | 71 | 172 | 0.0 | 1.0 | 0.00 | 0.00 | 0.00 | 88 | 1013.7 |
| 20260902041302 | 71 | 172 | 0.0 | 0.0 | 0.00 | 0.00 | 0.00 | 88 | 1013.7 |
| 20260902040802 | 71 | 172 | 0.0 | 1.0 | 0.00 | 0.00 | 0.00 | 87 | 1013.6 |
| 20260902040302 | 71 | 172 | 0.0 | 2.0 | 0.00 | 0.00 | 0.00 | 88 | 1013.6 |
| 20260902035802 | 71 | 172 | 0.0 | 2.0 | 0.00 | 0.00 | 0.00 | 88 | 1013.6 |
| 20260902034802 | 71 | 172 | 1.0 | 2.0 | 0.00 | 0.00 | 0.00 | 88 | 1013.6 |
| 20260902034302 | 71 | 172 | 1.0 | 2.0 | 0.00 | 0.00 | 0.00 | 88 | 1013.8 |
| 20260902033801 | 71 | 172 | 1.0 | 2.0 | 0.00 | 0.00 | 0.00 | 88 | 1013.7 |
| 20260902033301 | 71 | 172 | 0.0 | 1.0 | 0.00 | 0.00 | 0.00 | 88 | 1013.7 |
| 20260902032801 | 71 | 172 | 0.0 | 0.0 | 0.00 | 0.00 | 0.00 | 88 | 1013.6 |
| 20260902032301 | 71 | 172 | 0.0 | 0.0 | 0.00 | 0.00 | 0.00 | 87 | 1013.7 |
| 20260902031801 | 71 | 172 | 0.0 | 0.0 | 0.00 | 0.00 | 0.00 | 87 | 1013.6 |
| 20260902031301 | 71 | 172 | 0.0 | 0.0 | 0.00 | 0.00 | 0.00 | 87 | 1013.5 |
| 20260902030259 | 71 | 172 | 0.0 | 2.0 | 0.00 | 0.00 | 0.00 | 87 | 1013.4 |
| 20260902025801 | 72 | 172 | 0.0 | 2.0 | 0.00 | 0.00 | 0.00 | 87 | 1013.4 |
| 20260902025301 | 72 | 172 | 1.0 | 2.0 | 0.00 | 0.00 | 0.00 | 86 | 1013.3 |
| 20260902023300 | 73 | 172 | 0.0 | 0.0 | 0.00 | 0.00 | 0.00 | 85 | 1013.1 |
| 20260902022800 | 73 | 172 | 0.0 | 0.0 | 0.00 | 0.00 | 0.00 | 84 | 1013.1 |
| 20260902022259 | 73 | 172 | 0.0 | 0.0 | 0.00 | 0.00 | 0.00 | 83 | 1013.1 |
| 20260902021759 | 74 | 172 | 0.0 | 1.0 | 0.00 | 0.00 | 0.00 | 83 | 1013.1 |
| 20260902021259 | 74 | 172 | 0.0 | 1.0 | 0.00 | 0.00 | 0.00 | 83 | 1013.0 |
| 20260902020259 | 74 | 172 | 0.0 | 0.0 | 0.00 | 0.00 | 0.00 | 82 | 1012.9 |
| 20260902015759 | 74 | 172 | 0.0 | 0.0 | 0.00 | 0.00 | 0.00 | 82 | 1012.9 |
| 20260902015300 | 74 | 172 | 0.0 | 0.0 | 0.00 | 0.00 | 0.00 | 82 | 1012.9 |
| 20260902014258 | 75 | 172 | 0.0 | 1.0 | 0.00 | 0.00 | 0.00 | 81 | 1012.8 |
| 20260902013757 | 75 | 172 | 0.0 | 1.0 | 0.00 | 0.00 | 0.00 | 79 | 1012.7 |
| 20260902013258 | 76 | 172 | 0.0 | 0.0 | 0.00 | 0.00 | 0.00 | 79 | 1012.6 |
| 20260902012755 | 76 | 172 | 0.0 | 1.0 | 0.00 | 0.00 | 0.00 | 78 | 1012.6 |
| 20260902012256 | 76 | 172 | 0.0 | 1.0 | 0.00 | 0.00 | 0.00 | 77 | 1012.6 |
| 20260902011253 | 77 | 172 | 0.0 | 1.0 | 0.00 | 0.00 | 0.00 | 76 | 1012.6 |
| 20260902010254 | 78 | 172 | 1.0 | 2.0 | 0.00 | 0.00 | 0.00 | 75 | 1012.6 |
| 20260902005752 | 79 | 172 | 0.0 | 1.0 | 0.00 | 0.00 | 0.00 | 74 | 1012.5 |
| 20260902005252 | 79 | 172 | 0.0 | 0.0 | 0.00 | 0.00 | 0.00 | 73 | 1012.6 |
| 20260902004734 | 80 | 172 | 0.0 | 0.0 | 0.00 | 0.00 | 0.00 | 70 | 1012.6 |
| 20260902004232 | 80 | 172 | 0.0 | 0.0 | 0.00 | 0.00 | 0.00 | 70 | 1012.6 |
| 20260902003732 | 81 | 172 | 0.0 | 1.0 | 0.00 | 0.00 | 0.00 | 69 | 1012.6 |
| 20260902002730 | 83 | 172 | 0.0 | 2.0 | 0.00 | 0.00 | 0.00 | 66 | 1012.6 |
| 20260902002230 | 83 | 172 | 1.0 | 3.0 | 0.00 | 0.00 | 0.00 | 66 | 1012.7 |
| 20260902001731 | 84 | 172 | 1.0 | 3.0 | 0.00 | 0.00 | 0.00 | 64 | 1012.7 |
| 20260902001231 | 85 | 169 | 2.0 | 3.0 | 0.00 | 0.00 | 0.00 | 62 | 1012.7 |
| 20260902000728 | 86 | 175 | 1.0 | 4.0 | 0.00 | 0.00 | 0.00 | 60 | 1012.7 |
| 20260902000228 | 88 | 175 | 2.0 | 5.0 | 0.00 | 0.00 | 0.00 | 54 | 1012.9 |
| 20260901235725 | 89 | 175 | 2.0 | 6.0 | 0.00 | 0.00 | 0.00 | 50 | 1012.8 |
| 20260901235226 | 91 | 171 | 4.0 | 6.0 | 0.00 | 0.00 | 0.00 | 48 | 1012.7 |
| 20260901233724 | 93 | 200 | 3.0 | 7.0 | 0.00 | 0.00 | 0.00 | 46 | 1012.8 |
| 20260901233224 | 93 | 162 | 3.0 | 9.0 | 0.00 | 0.00 | 0.00 | 47 | 1012.8 |
| 20260901232222 | 93 | 172 | 3.0 | 9.0 | 0.00 | 0.00 | 0.00 | 43 | 1012.7 |
| 20260901231722 | 94 | 213 | 2.0 | 11.0 | 0.00 | 0.00 | 0.00 | 43 | 1012.9 |
| 20260901231220 | 95 | 188 | 6.0 | 11.0 | 0.00 | 0.00 | 0.00 | 40 | 1012.7 |
| 20260901230720 | 96 | 182 | 4.0 | 11.0 | 0.00 | 0.00 | 0.00 | 41 | 1012.8 |
| 20260901230220 | 96 | 195 | 3.0 | 13.0 | 0.00 | 0.00 | 0.00 | 40 | 1012.8 |
| 20260901225717 | 96 | 189 | 7.0 | 13.0 | 0.00 | 0.00 | 0.00 | 39 | 1012.8 |
| 20260901225218 | 96 | 157 | 3.0 | 12.0 | 0.00 | 0.00 | 0.00 | 38 | 1012.8 |
| 20260901224719 | 97 | 227 | 6.0 | 12.0 | 0.00 | 0.00 | 0.00 | 39 | 1012.8 |
| 20260901224215 | 97 | 254 | 5.0 | 10.0 | 0.00 | 0.00 | 0.00 | 39 | 1012.8 |
| 20260901223716 | 97 | 212 | 7.0 | 10.0 | 0.00 | 0.00 | 0.00 | 38 | 1012.8 |
| 20260901223216 | 97 | 212 | 4.0 | 13.0 | 0.00 | 0.00 | 0.00 | 38 | 1012.8 |
| 20260901222714 | 98 | 186 | 4.0 | 14.0 | 0.00 | 0.00 | 0.00 | 37 | 1012.8 |
| 20260901222214 | 98 | 219 | 6.0 | 14.0 | 0.00 | 0.00 | 0.00 | 36 | 1012.8 |
| 20260901221714 | 98 | 259 | 6.0 | 19.0 | 0.00 | 0.00 | 0.00 | 37 | 1012.8 |
| 20260901220712 | 98 | 202 | 10.0 | 17.0 | 0.00 | 0.00 | 0.00 | 36 | 1012.9 |
| 20260901220212 | 98 | 192 | 4.0 | 16.0 | 0.00 | 0.00 | 0.00 | 38 | 1012.9 |
| 20260901215710 | 98 | 185 | 6.0 | 14.0 | 0.00 | 0.00 | 0.00 | 37 | 1012.9 |
| 20260901215210 | 98 | 237 | 7.0 | 14.0 | 0.00 | 0.00 | 0.00 | 37 | 1012.9 |
| 20260901214209 | 98 | 204 | 9.0 | 16.0 | 0.00 | 0.00 | 0.00 | 36 | 1013.0 |
| 20260901213209 | 99 | 180 | 9.0 | 18.0 | 0.00 | 0.00 | 0.00 | 35 | 1013.0 |
| 20260901211706 | 99 | 202 | 6.0 | 17.0 | 0.00 | 0.00 | 0.00 | 36 | 1013.1 |
| 20260901211203 | 99 | 283 | 7.0 | 17.0 | 0.00 | 0.00 | 0.00 | 35 | 1013.2 |
| 20260901210703 | 100 | 214 | 4.0 | 16.0 | 0.00 | 0.00 | 0.00 | 35 | 1013.3 |
| 20260901210202 | 99 | 186 | 9.0 | 16.0 | 0.00 | 0.00 | 0.00 | 34 | 1013.3 |
| 20260901205202 | 99 | 224 | 5.0 | 16.0 | 0.00 | 0.00 | 0.00 | 36 | 1013.4 |
| 20260901204202 | 99 | 259 | 5.0 | 17.0 | 0.00 | 0.00 | 0.00 | 36 | 1013.6 |
| 20260901203703 | 99 | 203 | 6.0 | 17.0 | 0.00 | 0.00 | 0.00 | 37 | 1013.7 |
| 20260901203203 | 99 | 195 | 6.0 | 14.0 | 0.00 | 0.00 | 0.00 | 38 | 1013.8 |
| 20260901201702 | 100 | 155 | 9.0 | 13.0 | 0.00 | 0.00 | 0.00 | 36 | 1013.9 |
| 20260901201202 | 100 | 178 | 8.0 | 17.0 | 0.00 | 0.00 | 0.00 | 36 | 1014.0 |
| 20260901200702 | 99 | 140 | 9.0 | 17.0 | 0.00 | 0.00 | 0.00 | 36 | 1013.9 |
| 20260901200201 | 100 | 162 | 7.0 | 18.0 | 0.00 | 0.00 | 0.00 | 33 | 1014.0 |
| 20260901195702 | 100 | 169 | 9.0 | 20.0 | 0.00 | 0.00 | 0.00 | 35 | 1014.0 |
| 20260901195201 | 100 | 127 | 7.0 | 20.0 | 0.00 | 0.00 | 0.00 | 36 | 1014.1 |
| 20260901194702 | 100 | 219 | 8.0 | 17.0 | 0.00 | 0.00 | 0.00 | 36 | 1014.1 |
| 20260901194202 | 99 | 212 | 9.0 | 17.0 | 0.00 | 0.00 | 0.00 | 36 | 1014.1 |
| 20260901193702 | 100 | 226 | 7.0 | 16.0 | 0.00 | 0.00 | 0.00 | 37 | 1014.2 |
| 20260901193202 | 99 | 240 | 8.0 | 16.0 | 0.00 | 0.00 | 0.00 | 36 | 1014.3 |
| 20260901192703 | 99 | 224 | 10.0 | 16.0 | 0.00 | 0.00 | 0.00 | 36 | 1014.3 |
| 20260901192202 | 99 | 179 | 6.0 | 14.0 | 0.00 | 0.00 | 0.00 | 37 | 1014.3 |
| 20260901191702 | 99 | 252 | 8.0 | 14.0 | 0.00 | 0.00 | 0.00 | 39 | 1014.5 |
| 20260901191201 | 98 | 275 | 6.0 | 12.0 | 0.00 | 0.00 | 0.00 | 40 | 1014.5 |
| 20260901190702 | 98 | 245 | 5.0 | 12.0 | 0.00 | 0.00 | 0.00 | 38 | 1014.5 |
| 20260901190202 | 99 | 193 | 6.0 | 14.0 | 0.00 | 0.00 | 0.00 | 39 | 1014.7 |
| 20260901185702 | 99 | 235 | 7.0 | 17.0 | 0.00 | 0.00 | 0.00 | 40 | 1014.7 |
| 20260901185202 | 98 | 206 | 7.0 | 17.0 | 0.00 | 0.00 | 0.00 | 41 | 1014.6 |
| 20260901184202 | 98 | 244 | 5.0 | 14.0 | 0.00 | 0.00 | 0.00 | 40 | 1014.8 |
| 20260901183702 | 98 | 179 | 6.0 | 13.0 | 0.00 | 0.00 | 0.00 | 40 | 1014.9 |
| 20260901183202 | 98 | 228 | 5.0 | 14.0 | 0.00 | 0.00 | 0.00 | 40 | 1014.9 |
| 20260901182702 | 98 | 172 | 6.0 | 14.0 | 0.00 | 0.00 | 0.00 | 45 | 1015.0 |
| 20260901182202 | 97 | 207 | 7.0 | 13.0 | 0.00 | 0.00 | 0.00 | 42 | 1015.0 |
| 20260901181203 | 97 | 207 | 7.0 | 14.0 | 0.00 | 0.00 | 0.00 | 42 | 1015.2 |
| 20260901180703 | 97 | 204 | 5.0 | 11.0 | 0.00 | 0.00 | 0.00 | 44 | 1015.2 |
| 20260901180202 | 97 | 258 | 6.0 | 11.0 | 0.00 | 0.00 | 0.00 | 45 | 1015.2 |
| 20260901175702 | 97 | 212 | 6.0 | 11.0 | 0.00 | 0.00 | 0.00 | 45 | 1015.3 |
| 20260901174702 | 96 | 193 | 6.0 | 13.0 | 0.00 | 0.00 | 0.00 | 46 | 1015.5 |
| 20260901173702 | 96 | 203 | 4.0 | 12.0 | 0.00 | 0.00 | 0.00 | 48 | 1015.6 |
| 20260901172702 | 95 | 234 | 6.0 | 15.0 | 0.00 | 0.00 | 0.00 | 46 | 1015.6 |
| 20260901172202 | 96 | 182 | 8.0 | 15.0 | 0.00 | 0.00 | 0.00 | 46 | 1015.7 |
| 20260901171702 | 96 | 164 | 11.0 | 15.0 | 0.00 | 0.00 | 0.00 | 44 | 1015.8 |
| 20260901171202 | 96 | 180 | 7.0 | 15.0 | 0.00 | 0.00 | 0.00 | 46 | 1015.8 |
| 20260901170702 | 95 | 213 | 5.0 | 12.0 | 0.00 | 0.00 | 0.00 | 47 | 1015.7 |
| 20260901170203 | 95 | 197 | 4.0 | 11.0 | 0.00 | 0.00 | 0.00 | 47 | 1015.8 |
| 20260901165703 | 94 | 275 | 6.0 | 11.0 | 0.00 | 0.00 | 0.00 | 46 | 1015.8 |
| 20260901165202 | 94 | 185 | 6.0 | 10.0 | 0.00 | 0.00 | 0.00 | 49 | 1015.9 |
| 20260901164702 | 94 | 161 | 5.0 | 12.0 | 0.00 | 0.00 | 0.00 | 49 | 1015.9 |
| 20260901164202 | 94 | 217 | 3.0 | 12.0 | 0.00 | 0.00 | 0.00 | 52 | 1016.0 |
| 20260901163703 | 93 | 157 | 6.0 | 10.0 | 0.00 | 0.00 | 0.00 | 51 | 1016.1 |
| 20260901163202 | 92 | 206 | 3.0 | 10.0 | 0.00 | 0.00 | 0.00 | 51 | 1016.1 |
| 20260901162202 | 92 | 189 | 4.0 | 13.0 | 0.00 | 0.00 | 0.00 | 52 | 1016.1 |
| 20260901161702 | 92 | 219 | 6.0 | 13.0 | 0.00 | 0.00 | 0.00 | 53 | 1016.2 |
| 20260901161202 | 91 | 214 | 4.0 | 13.0 | 0.00 | 0.00 | 0.00 | 55 | 1016.1 |
| 20260901160702 | 90 | 193 | 5.0 | 13.0 | 0.00 | 0.00 | 0.00 | 55 | 1016.2 |
| 20260901160203 | 90 | 221 | 3.0 | 11.0 | 0.00 | 0.00 | 0.00 | 54 | 1016.2 |
| 20260901155703 | 89 | 189 | 4.0 | 12.0 | 0.00 | 0.00 | 0.00 | 56 | 1016.1 |
| 20260901154702 | 89 | 166 | 4.0 | 14.0 | 0.00 | 0.00 | 0.00 | 55 | 1016.3 |
| 20260901154202 | 89 | 235 | 6.0 | 14.0 | 0.00 | 0.00 | 0.00 | 55 | 1016.3 |
| 20260901153702 | 89 | 213 | 4.0 | 12.0 | 0.00 | 0.00 | 0.00 | 55 | 1016.3 |
| 20260901153202 | 89 | 192 | 4.0 | 11.0 | 0.00 | 0.00 | 0.00 | 56 | 1016.3 |
| 20260901152702 | 89 | 178 | 4.0 | 11.0 | 0.00 | 0.00 | 0.00 | 55 | 1016.3 |
| 20260901152201 | 88 | 142 | 4.0 | 12.0 | 0.00 | 0.00 | 0.00 | 56 | 1016.1 |
| 20260901151701 | 88 | 162 | 6.0 | 12.0 | 0.00 | 0.00 | 0.00 | 57 | 1016.1 |
| 20260901151202 | 87 | 180 | 4.0 | 11.0 | 0.00 | 0.00 | 0.00 | 59 | 1016.1 |
| 20260901150703 | 87 | 138 | 5.0 | 11.0 | 0.00 | 0.00 | 0.00 | 58 | 1016.1 |
| 20260901145702 | 86 | 172 | 6.0 | 11.0 | 0.00 | 0.00 | 0.00 | 61 | 1016.1 |
| 20260901145203 | 85 | 228 | 5.0 | 11.0 | 0.00 | 0.00 | 0.00 | 62 | 1016.2 |
| 20260901144702 | 85 | 213 | 6.0 | 11.0 | 0.00 | 0.00 | 0.00 | 62 | 1016.3 |
| 20260901144203 | 84 | 159 | 5.0 | 11.0 | 0.00 | 0.00 | 0.00 | 63 | 1016.2 |
| 20260901143702 | 83 | 182 | 5.0 | 11.0 | 0.00 | 0.00 | 0.00 | 66 | 1016.3 |
| 20260901143202 | 82 | 168 | 5.0 | 11.0 | 0.00 | 0.00 | 0.00 | 68 | 1016.2 |
| 20260901141701 | 80 | 158 | 7.0 | 11.0 | 0.00 | 0.00 | 0.00 | 70 | 1016.3 |
| 20260901141202 | 80 | 148 | 4.0 | 10.0 | 0.00 | 0.00 | 0.00 | 72 | 1016.3 |
| 20260901140202 | 78 | 162 | 4.0 | 9.0 | 0.00 | 0.00 | 0.00 | 74 | 1016.2 |
| 20260901135702 | 78 | 230 | 2.0 | 7.0 | 0.00 | 0.00 | 0.00 | 75 | 1016.4 |
| 20260901134702 | 75 | 183 | 3.0 | 6.0 | 0.00 | 0.00 | 0.00 | 79 | 1016.4 |
| 20260901134202 | 75 | 157 | 3.0 | 6.0 | 0.00 | 0.00 | 0.00 | 81 | 1016.3 |
| 20260901133203 | 73 | 155 | 2.0 | 3.0 | 0.00 | 0.00 | 0.00 | 85 | 1016.4 |
| 20260901132702 | 73 | 175 | 1.0 | 3.0 | 0.00 | 0.00 | 0.00 | 85 | 1016.4 |
| 20260901132203 | 73 | 175 | 1.0 | 3.0 | 0.00 | 0.00 | 0.00 | 86 | 1016.5 |
| 20260901131702 | 73 | 165 | 2.0 | 3.0 | 0.00 | 0.00 | 0.00 | 85 | 1016.5 |
| 20260901131202 | 72 | 113 | 0.0 | 4.0 | 0.00 | 0.00 | 0.00 | 88 | 1016.4 |
| 20260901130202 | 70 | 116 | 0.0 | 0.0 | 0.00 | 0.00 | 0.00 | 92 | 1016.3 |
| 20260901125202 | 67 | 116 | 0.0 | 0.0 | 0.00 | 0.00 | 0.00 | 94 | 1016.2 |
| 20260901124701 | 66 | 116 | 0.0 | 0.0 | 0.00 | 0.00 | 0.00 | 95 | 1016.1 |